User: anonymous   Login
Location: Unspecified
(0.0000°N, 0.0000°E)
Time: 07:02:57
(UTC+00:00)
Language:

OBJECT Z - Orbit

View from above orbital plane
View from above orbital plane
View from above satellite
View from above satellite

Ground track
Ground track

The orbit data is extracted from the following two-line orbital elements,

1 43134U 18004Z   21024.75561169  .00001469  00000-0  61902-4 0  9999
2 43134  97.4247 100.3293 0009093   6.5612 353.5743 15.24893789168763
Epoch (UTC): 24 January 2021 18:08:04
Eccentricity: 0.0009093
inclination: 97.4247°
perigee height: 485 km
apogee height: 497 km
right ascension of ascending node: 100.3293°
argument of perigee: 6.5612°
revolutions per day: 15.24893789
mean anomaly at epoch: 353.5743°
orbit number at epoch: 16876

The dashed part of the orbit path shows where the satellite is in the earth's shadow,  

DLR